Location: Bukovany
(49.8234°N, 14.6297°E)
Time: 05:56:10
(UTC+00:00)

SAR-Lupe-4 - Pass Details

Date: 17 November 2025
Orbit: 476 x 483 km, 98.1° (Epoch: 03 October)

Event Time Altitude Azimuth Distance (km) Brightness Sun altitude
Rises 16:40:27 0° 176° (S) 2,534 7.3 -13.6°
Reaches altitude 10° 16:42:33 10° 182° (S) 1,659 6.5 -13.9°
Maximum altitude 16:46:02 51° 259° (W) 616 4.5 -14.4°
Drops below altitude 10° 16:49:32 10° 336° (NNW) 1,671 6.4 -15.0°
Sets 16:51:39 0° 342° (NNW) 2,555 7.3 -15.3°
